OBJECT A, 67646

Orbit data source: Space-Track

You're viewing an Uncataloged Satellite

Recently launched and/or uncataloged satellites may have evolving metadata. Metadata may include but not limited to: Owner, Maufacturer, Bus, Motor, and Mission.

OBJECT A, 67646 is a Chinese satellite in SSO that was launched on Sat, 31 Jan 2026 UTC launched from the Jiuquan Satellite Launch Center, China (JSC). Unknown objects in Earth's orbit typically refer to objects detected orbiting the Earth but have not yet been identified or cataloged. These objects could be anything from previously untracked satellites, spent rocket stages, debris from satellite collisions, or even natural meteoroids temporarily captured by Earth's gravity.

Loading next visibility...
Identifier
67646, 2026-021A
Orbit
SSO
Country
Flag of CNCN / PRC
Related business
None
Manufacturer
Unknown
Mission
Operational spacecraft
Bus & Motor
Unknown
Mass
Unknown
Launch date (UTC)
2026-01-31 (3 days ago)
Launch vehicle
Unknown
Launch site
Jiuquan Satellite Launch Center, China (JSC)
Object type
Unknown
Shape & HBR
Unknown
Radar Cross Section
RCS unknown

Expand to show TLE details & history
Last TLE update: 14 hours ago

TLE from 14 hours ago
0 OBJECT A
1 67646U 26021A   26033.64172757  .00007174  00000-0  30404-3 0  9996
2 67646  97.4738 108.1279 0011336 256.7134 103.2839 15.23390697   381
Epoch: 2026-02-02T15:24Z
TLE epoch observation values (Epoch: 2026-02-02T15:24:05.262Z)
Latitude
0.00003°
Longitude
104.27188°
Altitude
500.514 km
Speed
7.613 km/s
True Right ascension
07h 12m 30s
True Declination
0° 00' 00"
Sunlit
Object was in full shadow at epoch
Visualization orbit readout
Latitude
Unknown
Longitude
Unknown
Altitude
Unknown
Speed
Unknown
Apparent Right ascension
Unknown
Apparent Declination
Unknown
Sunlit
N/A
Visualization observer readout
Local Sidereal Time
07:31:25
Azimuth
Unknown
Elevation
Unknown
Doppler factor
Unknown
Orbital elements
Apogee altitude
500.375 km
Perigee altitude
484.798 km
Semi-major axis
6,870.723 km
Eccentricity
0.00113
Inclination
97.4738°
RAAN
108.1279°
Arg. of periapsis
256.7134°
True anomaly
103.41028°
Mean anomaly
103.2839°
Eccentric anomaly
103.3471°
Mean motion
3.811 °/min
Orbital period
94.46 mins
BSTAR
0.00030404
Loading maneuver chart data...
Computing Atmospheric mass density...
Loading historical data...
Loading historical data...
Loading historical data...
Loading historical data...
Loading historical data...
Loading historical data...
Loading historical data...
Other satellites on launch #21 in the year 2026 (2026-01-31 UTC)

Documentation

Showing up to 5 results
|